AirNav   Pilot Hours Calculator
 
 1326 users online  

SC82 Oakhill Airpark
Williamson, South Carolina, USA

GOING TO WILLIAMSON?


FAA INFORMATION EFFECTIVE 26 JANUARY 2023

Location

FAA Identifier: SC82
Lat/Long: 34-35-07.8600N 082-21-08.2200W
34-35.131000N 082-21.137000W
34.5855167,-82.3522833
(estimated)
Elevation: 837 ft. / 255 m (estimated)
Variation: 04W (1990)
From city: 8 miles E of WILLIAMSON, SC
Time zone: UTC -5 (UTC -4 during Daylight Saving Time)
Zip code: 29697

Airport Operations

Airport use: Private use. Permission required prior to landing
Activation date: 04/1993
Control tower: no
ARTCC: ATLANTA CENTER
FSS: ANDERSON FLIGHT SERVICE STATION
Attendance: UNATNDD
Wind indicator: yes
Segmented circle: no
Lights: ACTVT LIRL RY 10/28 122.9.

Airport Communications

WX AWOS-3 at GYH (10 nm N): 127.325 (864-277-5674)
WX ASOS at GMU (16 nm N): 127.075 (864-239-0014)
WX ASOS at AND (18 nm W): 120.675 (864-226-9522)
WX ASOS at GSP (20 nm N): 134.25 (864-879-0614)

Nearby radio navigation aids

VOR radial/distance  VOR name  Freq  Var
GRDr335/22.3GREENWOOD VORTAC115.5001W
ELWr065/23.6ELECTRIC CITY VORTAC108.6000E
SPAr220/34.1SPARTANBURG VORTAC115.7002W

 
NDB name  Hdg/Dist  Freq  Var  ID
DYANA149/7.833804WGY --. -.--
JUDKY186/11.752105WGM --. --
UNION COUNTY266/35.532606WUOT ..- --- -
ENOREE302/39.127807WEOE . --- .

Airport Services

Runway Information

Runway 10/28

Dimensions: 2400 x 100 ft. / 732 x 30 m
Surface: turf, in good condition
Runway edge lights: low intensity
RUNWAY 10  RUNWAY 28
Traffic pattern: leftleft
Obstructions: 50 ft. trees, 1000 ft. from runway50 ft. trees, 800 ft. from runway

Airport Ownership and Management from official FAA records

Ownership: Privately-owned
Owner: OAKHILL AIRPARK PROPERTY OWNERS
2 AERONCA ROAD
BELTON, SC 29627
Phone 864-299-6018
Manager: MICHAEL JODOIN
21 AERONCA ROAD
BELTON, SC 29627
Phone (864) 419-8565

Airport Operational Statistics

Aircraft based on the field: 15
Single engine airplanes: 13
Multi engine airplanes: 1
Helicopters: 1
    

Additional Remarks

FOR CD CTC ATLANTA ARTCC AT 770-210-7692.

Instrument Procedures

There are no published instrument procedures at SC82.

Some nearby airports with instrument procedures:

KGYH - Donaldson Field Airport (10 nm N)
KGMU - Greenville Downtown Airport (16 nm N)
KAND - Anderson Regional Airport (18 nm W)
KGSP - Greenville Spartanburg International Airport (20 nm N)
KLUX - Laurens County Airport (21 nm E)
 
Loc | Ops | Rwys | IFR | FBO | Links
Com | Nav | Svcs | Stats | Notes
Aerial photo
WARNING: Photo may not be current or correct
Aerial photo of SC82 (Oakhill Airpark)
Photo by Chris Goodwin
Photo taken 16-Sep-2016
looking east

Do you have a better or more recent aerial photo of Oakhill Airpark that you would like to share? If so, please send us your photo.

 
Sectional chart

 
Airport distance calculator
Flying to Oakhill Airpark? Find the distance to fly.

From to SC82

Sunrise and sunset
Times for 31-Jan-2023
 Local
(UTC-5)
 Zulu
(UTC)
Morning civil twilight07:0312:03
Sunrise07:2912:29
Sunset17:5722:57
Evening civil twilight18:2323:23

Current date and time
Zulu (UTC)  01-Feb-2023 01:05:45
Local (UTC-5)  31-Jan-2023 20:05:45
 
METAR
KGYH 
10nm N 
010047Z 24008KT 10SM BKN43 OVC070 15/13 A3011
KGMU 
16nm N 
010053Z 24006KT 10SM SCT070 OVC090 16/13 A3011 RMK AO2 SLP193 T01610128
KAND 
19nm W 
010056Z AUTO 23006KT 10SM OVC032 16/14 A3011 RMK AO2 SLP193 T01610139
KGSP 
20nm N 
010053Z 23006KT 10SM FEW050 OVC090 15/12 A3010 RMK AO2 SLP189 T01500122
KLUX 
21nm E 
010055Z AUTO 19003KT 10SM OVC023 15/15 A3011 RMK AO2
TAF
KGMU 
16nm N 
312110Z 3121/0118 26006KT P6SM SCT013 BKN070 FM312200 23008KT P6SM OVC013 FM010000 23007KT P6SM OVC008 TEMPO 0100/0104 6SM -RA BR OVC005 FM010700 26005KT 5SM -RA BR OVC004 PROB30 0107/0113 2SM -RA BR OVC006 FM011600 01006KT P6SM OVC008
KAND 
19nm W 
312121Z 3121/0118 22007KT P6SM VCSH SCT020 BKN040 TEMPO 3121/3123 BKN015 FM312300 22006KT P6SM OVC008 FM010700 25004KT 5SM -RA BR OVC006 FM011100 25006KT 4SM BR OVC008 FM011500 26006KT P6SM OVC009
NOTAMs
Click for the latest NOTAMs
NOTAMs are issued by the DoD/FAA and will open in a separate window not controlled by AirNav.

 

 
 

Would you like to see your business listed on this page?

 If your business provides an interesting product or service to pilots, flight crews, aircraft, or users of the Oakhill Airpark, you should consider listing it here.  To start the listing process, click on the button below
 
Add a business
 

Other Pages about Oakhill Airpark

Update a link
 
Copyright © AirNav, LLC. All rights reserved. Privacy Policy  Contact